Location: Oriwa
(40.7500°S, 175.3333°E)
Time: 12:51:14
(UTC+00:00)

Cosmos 1464 Rocket - Pass Details

Date: 03 February 2023
Orbit: 953 x 1001 km, 82.9° (Epoch: 30 March)

Event Time Altitude Azimuth Distance (km) Brightness Sun altitude
Exits shadow 15:43:26 12° 1° (N) 2,571 5.8 -17.7°
Maximum altitude 15:49:15 77° 85° (E) 1,022 4.2 -16.8°
Drops below altitude 10° 15:55:39 10° 170° (S) 2,788 7.1 -15.9°
Sets 15:58:13 0° 171° (S) 3,749 7.8 -15.5°
